Regional Weather Roundup
Issued by NWS

Home | Current Version | Previous Version | Text Only | Print | Product List | Glossary Off
Versions: 1 2 3 4 5 6 7 8 9 10 11 12 13 14 15 16 17 18 19 20 21 22 23 24 25 26

000
ASUS45 KPSR 271810
RWRAZ

ARIZONA HOURLY REGIONAL WEATHER ROUNDUP
NATIONAL WEATHER SERVICE PHOENIX AZ
1100 AM MST THU JUL 27 2017

NOTE: FAIR INDICATES FEW OR NO CLOUDS BELOW 12,000 FEET WITH NO
SIGNIFICANT WEATHER AND/OR OBSTRUCTIONS TO VISIBILITY.

AZZ001>003-036-271900-
NORTHWEST ARIZONA

CITY           SKY/WX    TMP DP  RH WIND       PRES   REMARKS
BULLHEAD CITY  MOSUNNY  102  55  21 SW3       29.86F HX 101
KINGMAN        SUNNY     93  53  25 VRB5      30.09F
6HR MIN TEMP:  70; 6HR MAX TEMP:  93;

$$

AZZ004>008-015-016-018-271900-
NORTH CENTRAL ARIZONA

CITY           SKY/WX    TMP DP  RH WIND       PRES   REMARKS
GRAND CANYON   PTSUNNY   78  54  43 VRB5      30.33F
6HR MIN TEMP:  54; 6HR MAX TEMP:  81;

WILLIAMS       PTSUNNY   77  55  47 VRB5      30.33F
PRESCOTT       MOSUNNY   85  60  42 CALM      30.21F
6HR MIN TEMP:  64; 6HR MAX TEMP:  85;

FLAGSTAFF      PTSUNNY   77  53  43 VRB5      30.35F
6HR MIN TEMP:  54; 6HR MAX TEMP:  78;

PAYSON         MOSUNNY   86  57  37 VRB5      30.23F
PAGE           SUNNY     90  57  32 VRB3      30.12F
6HR MIN TEMP:  74; 6HR MAX TEMP:  90;

$$

AZZ009>014-017-271900-
NORTHEAST ARIZONA

CITY           SKY/WX    TMP DP  RH WIND       PRES   REMARKS
WINSLOW        SUNNY     90  55  30 W7        30.18F
6HR MIN TEMP:  65; 6HR MAX TEMP:  90;

SAINT JOHNS    SUNNY     87  56  34 VRB6      30.23F
6HR MIN TEMP:  65; 6HR MAX TEMP:  87;

WINDOW ROCK    MOSUNNY   82  51  34 W6        30.31F
6HR MIN TEMP:  57; 6HR MAX TEMP:  86;

SHOW LOW       MOSUNNY   77  52  41 N5        30.30F
$$

AZZ540-542>544-546-548-271900-
GREATER PHOENIX AREA

CITY           SKY/WX    TMP DP  RH WIND       PRES   REMARKS
PHOENIX        MOSUNNY  100  56  23 VRB3      29.87F
6HR MIN TEMP:  89; 6HR MAX TEMP: 100;

BUCKEYE        SUNNY     99  57  25 S7        29.88F
GLENDALE       MOSUNNY  100  59  25 S5        29.89F HX 100
LUKE AFB       SUNNY    101  60  25 SW8       29.86F HX 101
6HR MIN TEMP:  83; 6HR MAX TEMP: 101;

DEER VALLEY    SUNNY    100  58  24 VRB5      29.89F
6HR MIN TEMP:  82; 6HR MAX TEMP: 100;

SCOTTSDALE     SUNNY     99  58  25 S6        29.92F
6HR MIN TEMP:  85; 6HR MAX TEMP:  99;

MESA-FALCON    MOSUNNY   97  61  30 W5        29.91F
CHANDLER       SUNNY    100  55  22 W12       29.89F
$$

AZZ539-553-271900-
SOUTHWEST MARICOPA COUNTY AND PINAL COUNTY

CITY           SKY/WX    TMP DP  RH WIND       PRES   REMARKS
CASA GRANDE    SUNNY    100  58  24 VRB7      29.93F
6HR MIN TEMP:  82; 6HR MAX TEMP: 100;

GILA BEND      FAIR     101  55  21 W6        29.87F
6HR MIN TEMP:  84; 6HR MAX TEMP: 101;

$$

AZZ503-504-507>509-271900-
SOUTHEAST ARIZONA

CITY           SKY/WX    TMP DP  RH WIND       PRES   REMARKS
TUCSON         MOSUNNY   93  59  31 N3        30.03F
6HR MIN TEMP:  78; 6HR MAX TEMP:  94;

DAVIS-MONTHAN  SUNNY     92  63  37 N5        30.02F
6HR MIN TEMP:  76; 6HR MAX TEMP:  92;

RYAN FIELD     SUNNY     93  61  33 W6        30.02
NOGALES        MOSUNNY   88  62  41 NW5       30.12S
6HR MIN TEMP:  70; 6HR MAX TEMP:  88;

SIERRA VISTA   MOSUNNY   87  59  38 NE6       30.19S
6HR MIN TEMP:  68; 6HR MAX TEMP:  87;

DOUGLAS        MOSUNNY   86  62  44 VRB5      30.13S
6HR MIN TEMP:  69; 6HR MAX TEMP:  86;

SAFFORD        CLOUDY    88  61  40 VRB5      30.03F
6HR MIN TEMP:  73; 6HR MAX TEMP:  88;

$$

AZZ532-271900-
SOUTHWEST ARIZONA

CITY           SKY/WX    TMP DP  RH WIND       PRES   REMARKS
YUMA           SUNNY    101  53  20 S7        29.84F
6HR MIN TEMP:  84; 6HR MAX TEMP: 101;

$$

CAZ041-043-047-048-061-525>527-560>570-271900-
SOUTHERN CALIFORNIA

CITY           SKY/WX    TMP DP  RH WIND       PRES   REMARKS
DOWNTOWN L.A.  SUNNY     81  64  56 CALM      29.95S
6HR MIN TEMP:  67; 6HR MAX TEMP:  81;

L.A. AIRPORT   PTSUNNY   74  65  73 W9        29.96F
6HR MIN TEMP:  67; 6HR MAX TEMP:  74;

SAN DIEGO      MOSUNNY   78  66  66 NW12      29.96S
6HR MIN TEMP:  70; 6HR MAX TEMP:  78;

BURBANK        SUNNY     82  60  47 SE7       29.96F
6HR MIN TEMP:  66; 6HR MAX TEMP:  82;

ONTARIO        PTSUNNY   86  61  42 S6        29.96F
6HR MIN TEMP:  67; 6HR MAX TEMP:  86;

RIVERSIDE      MOSUNNY   85  64  49 VRB5      29.95F
6HR MIN TEMP:  67; 6HR MAX TEMP:  86;

PALM SPRINGS   SUNNY    107  55  18 NE3       29.85F HX 106
6HR MIN TEMP:  84; 6HR MAX TEMP: 107;

EL CENTRO NAS  MOSUNNY  102  49  16 CALM      29.83F
6HR MIN TEMP:  80; 6HR MAX TEMP: 103;

IMPERIAL       SUNNY    102  60  25 W6        29.81F HX 103
6HR MIN TEMP:  81; 6HR MAX TEMP: 102;

BLYTHE         SUNNY    103  55  20 E7        29.84F HX 101
6HR MIN TEMP:  84; 6HR MAX TEMP: 105;

NEEDLES        SUNNY    104  51  17 CALM      29.88F HX 101
6HR MIN TEMP:  88; 6HR MAX TEMP: 105;

$$

NVZ020-UTZ003-271900-
SOUTHERN NEVADA-UTAH

CITY           SKY/WX    TMP DP  RH WIND       PRES   REMARKS
LAS VEGAS      MOSUNNY   95  61  32 CALM      29.99F
6HR MIN TEMP:  85; 6HR MAX TEMP:  96;

SALT LAKE CITY MOSUNNY   82  56  40 E5        30.17F
6HR MIN TEMP:  67; 6HR MAX TEMP:  83;

$$

NMZ009-TXZ055-271900-
NEW MEXICO-WEST TEXAS

CITY           SKY/WX    TMP DP  RH WIND       PRES   REMARKS
ALBUQUERQUE    CLOUDY    75  57  53 S8        30.26F
6HR MIN TEMP:  70; 6HR MAX TEMP:  76; 6HR PCP: TRACE;

EL PASO        MOSUNNY   91  63  39 VRB3      30.10F
6HR MIN TEMP:  75; 6HR MAX TEMP:  91;

$$


........................KEY........................
SKY/WX - SKY CONDITION/WEATHER
TMP    - TEMPERATURE IN FAHRENHEIT
DP     - DEW POINT IN FAHRENHEIT
RH     - RELATIVE HUMIDITY IN PERCENT
WIND   - DIRECTION AND SPEED IN MILES PER HOUR (MPH)
VRB    - VARIABLE WIND DIRECTION
PRES   - MEAN SEA LEVEL PRESSURE IN INCHES OF MERCURY
         F - FALLING PRESSURE   R - RISING PRESSURE
         S - STEADY PRESSURE
VSB    - VISIBILITY IN MILES
HX     - HEAT INDEX IN FAHRENHEIT
WCI    - WIND CHILL INDEX IN FAHRENHEIT
TC     - TEMPERATURE IN CELSIUS WHICH IS ALSO KNOWN AS
         TEMPERATURE IN CENTIGRADE
AFB    - AIR FORCE BASE
         LUKE AFB IS LUKE AIR FORCE BASE
         DAVIS-MONTHAN IS DAVIS-MONTHAN AIR FORCE BASE
NAS    - NAVAL AIR STATION
         EL CENTRO NAS IS EL CENTRO NAVAL AIR STATION
N/A    - NOT AVAILABLE





USA.gov is the U.S. government's official web portal to all federal, state and local government web resources and services.